{"data":{"norad_id":55015,"epoch":"2026-09-21T21:51:30.013056Z","epoch_age_seconds":42929,"freshness":"FRESH","line1":"1 55015U 23001G   26264.91076404  .00005937  00000+0  14329-3 0  9998","line2":"2 55015  97.3260 333.1794 0007926 112.5996 247.6090 15.41554282207242","mean_motion":15.41554282,"eccentricity":0.0007926,"inclination_deg":97.326,"raan_deg":333.1794,"arg_perigee_deg":112.5996,"mean_anomaly_deg":247.609,"bstar":0.00014329,"rev_number":20724,"period_min":93.412214984201,"perigee_km":436.11622539233,"apogee_km":446.92674802546,"semimajor_km":6819.6584867089,"source":"CELESTRAK","updated_at":"2026-09-22T09:00:25.265307Z"}}